Hourly Data Report for June 19, 2020

TORONTO CITY
ONTARIO
Current Station Operator: ECCC - MSC

43°40'00.000" N
79°24'00.000" W
112.50 m
6158355
71508
XTO

Download Data

Hourly Data (June 2020)
Hourly Data Report for June 19, 2020
TIME
LST
Temp Definition
°C
Dew Point Definition
°C
Rel Hum Definition
%
Precip. Amount Definition
mm

Wind Dir Definition
10's deg

Wind Spd Definition
km/h
Visibility Definition
km
Stn Press Definition
kPa
Hmdx Definition


Wind Chill Definition


Weather Definition


00:00 22.9 11.4 48 0.0       100.25 25   LegendNANA
01:00 22.3 12.3 53 0.0       100.25 25   LegendNANA
02:00 21.0 12.7 59 0.0       100.26     LegendNANA
03:00 19.5 13.0 66 0.0       100.29     LegendNANA
04:00 20.0 14.1 69 0.0       100.34     LegendNANA
05:00 19.0 13.9 72 0.0       100.34     LegendNANA
06:00 19.9 14.3 70 0.0       100.37     LegendNANA
07:00 21.4 14.1 63 0.0       100.38 25   LegendNANA
08:00 23.8 12.7 50 0.0       100.38 26   LegendNANA
09:00 24.3 11.5 45 0.0       100.38 26   LegendNANA
10:00 26.2 13.1 44 0.0       100.36 29   LegendNANA
11:00 26.5 12.6 42 0.0       100.35 29   LegendNANA
12:00 27.4 14.2 44 0.0       100.34 31   LegendNANA
13:00 27.6 12.3 39 0.2       100.32 30   LegendNANA
14:00 28.1 12.0 37 0.0       100.26 30   LegendNANA
15:00 28.7 14.8 43 0.0       100.21 33   LegendNANA
16:00 27.6 15.5 48 0.4       100.21 32   LegendNANA
17:00 25.4 16.0 56 0.3       100.18 30   LegendNANA
18:00 25.3 15.3 54 0.0       100.22 29   LegendNANA
19:00 25.2 15.4 55 0.0       100.26 29   LegendNANA
20:00 23.6 15.0 59 0.0       100.26 28   LegendNANA
21:00 23.3 15.1 60 0.0       100.30 27   LegendNANA
22:00 22.4 15.2 64 0.0       100.29 26   LegendNANA
23:00 22.1 15.3 65 0.0       100.27 26   LegendNANA

Notes on Data Quality.

Legend

  • E = Estimated
  • M = Missing
  • NA = Not Available*
  • [empty] = Indicates an unobserved value
Date modified: